DW3332 Weather Reports


Display with metric or nautical units.
time (UTC)temp
F
wind
direction
speed
MPH
gust
MPH
rain 1hr
in
rain 24hr
in
rain mn
in
humidity
%
barometer
mb
20181121175707 44 213 0.0 0.0 0.01 0.09 0.08 72 1017.0
20181121175207 44 213 0.0 0.0 0.01 0.09 0.08 72 1017.0
20181121174707 44 213 0.0 0.0 0.01 0.09 0.08 72 1017.0
20181121174207 44 213 0.0 0.0 0.01 0.08 0.08 72 1017.0
20181121173708 44 213 0.0 0.0 0.01 0.09 0.08 71 1017.0
20181121173207 44 213 0.0 0.0 0.01 0.09 0.08 71 1017.0
20181121172707 44 213 0.0 0.0 0.01 0.09 0.08 71 1017.0
20181121172207 44 213 0.0 0.0 0.01 0.09 0.08 71 1017.0
20181121171708 44 213 0.0 0.0 0.00 0.08 0.07 71 1017.0
20181121171207 44 213 0.0 0.0 0.00 0.08 0.07 71 1017.0
20181121170708 44 213 0.0 0.0 0.00 0.08 0.07 71 1003.3
20181121170208 44 213 0.0 0.0 0.00 0.08 0.07 71 1017.0
20181121165707 44 213 0.0 0.0 0.00 0.08 0.07 71 1017.0
20181121165207 44 213 0.0 0.0 0.00 0.08 0.07 71 1017.0
20181121164707 44 213 0.0 0.0 0.00 0.09 0.07 71 1017.0
20181121164207 44 213 0.0 0.0 0.00 0.09 0.07 71 1017.0
20181121163707 44 213 0.0 0.0 0.00 0.09 0.07 71 1017.0
20181121163207 44 213 0.0 0.0 0.01 0.09 0.07 71 1017.0
20181121162707 44 213 0.0 0.0 0.01 0.09 0.07 71 1017.0
20181121162207 44 213 0.0 0.0 0.01 0.09 0.07 71 1017.0
20181121161718 44 213 0.0 0.0 0.01 0.09 0.07 71 1017.0
20181121161207 44 213 0.0 0.0 0.02 0.09 0.07 71 1017.0
20181121160707 44 213 0.0 0.0 0.03 0.09 0.07 71 1017.0
20181121160207 44 213 0.0 0.0 0.03 0.09 0.07 71 1017.0
20181121155708 44 213 0.0 0.0 0.03 0.09 0.07 71 1017.0
20181121155207 44 222 0.0 0.0 0.03 0.09 0.07 71 1017.0
20181121154707 44 235 0.0 0.0 0.03 0.09 0.07 71 1017.0
20181121154207 44 235 0.0 0.0 0.03 0.09 0.07 71 1017.0
20181121153707 44 235 0.0 0.0 0.03 0.09 0.07 71 1017.0
20181121153207 44 257 0.0 0.0 0.03 0.09 0.07 71 1017.0
20181121152710 44 257 0.0 0.0 0.03 0.09 0.07 71 1017.0
20181121152208 44 280 0.0 0.0 0.03 0.09 0.07 70 1017.0
20181121151707 44 280 0.0 0.0 0.02 0.09 0.06 70 1017.0
20181121151207 44 280 0.0 0.0 0.02 0.08 0.05 70 1017.0
20181121150707 44 280 0.0 0.0 0.01 0.08 0.04 70 1017.0
20181121150207 44 280 0.0 0.0 0.01 0.08 0.04 70 1017.0
20181121145708 45 280 0.0 0.0 0.00 0.07 0.04 70 1017.0
20181121145207 45 280 0.0 0.0 0.00 0.07 0.04 69 1017.0
20181121144707 45 280 0.0 0.0 0.00 0.08 0.04 69 1017.0
20181121144207 45 280 0.0 0.0 0.00 0.08 0.04 69 1017.0
20181121143707 45 280 0.0 0.0 0.00 0.08 0.04 69 1017.0
20181121143207 45 280 0.0 0.0 0.00 0.08 0.04 69 1017.0
20181121142707 45 280 0.0 0.0 0.00 0.09 0.04 69 1017.0
20181121142207 44 280 0.0 0.0 0.00 0.10 0.04 70 1017.0
20181121141708 44 280 0.0 0.0 0.00 0.11 0.04 70 1017.0
20181121141207 44 280 0.0 0.0 0.00 0.12 0.04 70 1017.0
20181121140707 44 280 0.0 0.0 0.00 0.13 0.04 70 1017.0
20181121140207 45 280 0.0 0.0 0.00 0.14 0.04 70 1017.0
20181121135707 44 280 0.0 0.0 0.00 0.14 0.04 70 1017.0
20181121135207 45 280 0.0 0.0 0.00 0.14 0.04 70 1017.0
20181121134707 45 280 0.0 0.0 0.00 0.15 0.04 70 1017.0
20181121134207 44 280 0.0 0.0 0.00 0.15 0.04 70 1017.0
20181121133707 44 280 0.0 0.0 0.00 0.15 0.04 70 1017.0
20181121133207 44 280 0.0 0.0 0.00 0.16 0.04 70 1017.0
20181121132708 44 280 0.0 0.0 0.00 0.16 0.04 70 1017.0
20181121132207 44 280 0.0 0.0 0.00 0.16 0.04 70 1017.0
20181121131707 44 280 0.0 0.0 0.00 0.16 0.04 70 1017.0
20181121131206 44 280 0.0 0.0 0.00 0.16 0.04 70 1016.0
20181121130707 44 280 0.0 0.0 0.00 0.17 0.04 70 1016.0
20181121130207 44 280 0.0 0.0 0.00 0.17 0.04 70 1016.0
20181121125707 44 280 0.0 0.0 0.00 0.18 0.04 70 1016.0
20181121125207 44 280 0.0 0.0 0.00 0.19 0.04 70 1016.0
20181121124711 44 280 0.0 0.0 0.00 0.20 0.04 71 1016.0
20181121124207 44 280 0.0 0.0 0.00 0.21 0.04 71 1005.8
20181121123707 44 280 0.0 0.0 0.00 0.22 0.04 71 1016.0
20181121123208 44 280 0.0 0.0 0.00 0.23 0.04 71 1016.0
20181121122707 44 280 0.0 0.0 0.00 0.24 0.04 71 1016.0
20181121122207 44 280 0.0 0.0 0.00 0.25 0.04 71 1016.0
20181121121710 44 280 0.0 0.0 0.00 0.26 0.04 71 1016.0
20181121121207 44 280 0.0 0.0 0.00 0.27 0.04 71 1016.0
20181121120706 44 280 0.0 0.0 0.00 0.27 0.04 71 1016.0
20181121115708 44 280 0.0 0.0 0.00 0.29 0.04 71 1016.0
20181121115206 44 280 0.0 0.0 0.00 0.30 0.04 72 1016.0
20181121114707 44 280 0.0 0.0 0.00 0.32 0.04 72 1016.0
20181121114207 44 280 0.0 0.0 0.00 0.33 0.04 72 1016.0
20181121113707 44 280 0.0 0.0 0.00 0.34 0.04 72 1016.0
20181121113207 44 280 0.0 0.0 0.00 0.35 0.04 72 1005.1
20181121112206 44 280 0.0 0.0 0.00 0.36 0.04 72 1016.0
20181121111707 44 280 0.0 0.0 0.00 0.37 0.04 72 1016.0
20181121111207 44 280 0.0 0.0 0.00 0.37 0.04 72 1016.0
20181121110208 44 280 0.0 0.0 0.00 0.37 0.04 72 1016.0
20181121105707 43 280 0.0 0.0 0.00 0.37 0.04 72 1016.0
20181121105207 43 280 0.0 0.0 0.00 0.37 0.04 72 1016.0
20181121104708 43 280 0.0 0.0 0.00 0.37 0.04 72 1016.0
20181121104207 43 280 0.0 0.0 0.00 0.37 0.04 72 1016.0
20181121103707 43 280 0.0 0.0 0.00 0.37 0.04 72 1016.0
20181121103206 43 280 0.0 0.0 0.00 0.37 0.04 73 1016.0
20181121102707 43 280 0.0 0.0 0.00 0.37 0.04 73 1016.0
20181121102207 43 280 0.0 0.0 0.00 0.37 0.04 73 1016.0
20181121101707 43 280 0.0 0.0 0.00 0.37 0.04 73 1016.0
20181121101207 43 280 0.0 0.0 0.00 0.37 0.04 73 1016.0
20181121100707 43 280 0.0 0.0 0.00 0.37 0.04 73 1016.0
20181121100207 43 280 0.0 0.0 0.00 0.37 0.04 73 1016.0
20181121095707 43 280 0.0 0.0 0.00 0.37 0.04 73 1016.0
20181121095207 43 280 0.0 0.0 0.00 0.37 0.04 74 1016.0
20181121094707 43 280 0.0 0.0 0.00 0.37 0.04 74 1016.0
20181121094207 43 280 0.0 0.0 0.00 0.37 0.04 74 1016.0
20181121093707 43 280 0.0 0.0 0.00 0.37 0.04 74 1003.7
20181121093206 43 280 0.0 0.0 0.00 0.37 0.04 74 1016.0
20181121092707 43 257 0.0 0.0 0.00 0.37 0.04 74 1016.0
20181121092207 43 325 0.0 0.0 0.00 0.37 0.04 74 1016.0
20181121091707 43 325 0.0 2.0 0.00 0.37 0.04 74 1016.0
20181121091207 43 325 0.0 2.0 0.00 0.37 0.04 75 1016.0
20181121090707 43 303 0.0 0.0 0.00 0.37 0.04 75 1016.0
20181121090208 43 303 0.0 0.0 0.00 0.37 0.04 75 1016.0
20181121085707 42 303 0.0 0.0 0.00 0.37 0.04 75 1016.0
20181121085207 42 303 0.0 0.0 0.00 0.37 0.04 75 1016.0
20181121084707 42 303 0.0 0.0 0.00 0.37 0.04 75 1016.0
20181121084207 42 325 0.0 0.0 0.00 0.37 0.04 75 1016.0
20181121083707 42 325 0.0 0.0 0.00 0.37 0.04 75 1016.0
20181121083207 42 325 0.0 0.0 0.00 0.37 0.04 75 1016.0
20181121082707 42 325 0.0 0.0 0.00 0.37 0.04 75 1016.0
20181121082207 42 325 0.0 0.0 0.00 0.37 0.04 75 1016.0
20181121081707 42 325 0.0 0.0 0.00 0.37 0.04 75 1016.0
20181121081207 42 303 0.0 0.0 0.00 0.37 0.04 75 1016.0
20181121080707 42 325 0.0 0.0 0.00 0.37 0.04 75 1016.0
20181121080206 42 303 0.0 0.0 0.00 0.37 0.04 75 1016.0
20181121075707 42 303 0.0 0.0 0.00 0.37 0.04 74 1016.0
20181121075207 42 303 0.0 0.0 0.00 0.37 0.04 74 1016.0
20181121074707 42 303 0.0 0.0 0.00 0.37 0.04 74 1016.0
20181121074207 42 303 0.0 0.0 0.00 0.37 0.04 74 1016.0
20181121073707 42 306 0.0 0.0 0.00 0.37 0.04 74 1016.0
20181121073207 42 5 0.0 0.0 0.00 0.37 0.04 74 1016.0
20181121072707 42 31 0.0 0.0 0.00 0.37 0.04 74 1016.0
20181121072207 42 33 0.0 0.0 0.00 0.37 0.04 74 1016.0
20181121071706 42 33 0.0 0.0 0.00 0.37 0.04 74 1016.0
20181121071207 41 33 0.0 0.0 0.00 0.37 0.04 74 1016.0
20181121070707 41 33 0.0 0.0 0.01 0.37 0.04 74 1016.0
20181121070207 41 33 0.0 0.0 0.01 0.37 0.04 74 1016.0
20181121065707 41 33 0.0 0.0 0.01 0.37 0.04 74 1016.0
20181121065207 41 33 0.0 0.0 0.01 0.37 0.04 74 1016.0
20181121055207 41 100 0.0 0.0 0.01 0.36 0.03 73 1015.0
20181121054707 41 100 0.0 0.0 0.01 0.36 0.03 73 1015.0
20181121054206 41 100 0.0 0.0 0.01 0.36 0.03 73 1015.0
20181121053714 41 100 0.0 0.0 0.01 0.36 0.03 72 1015.0
20181121053208 41 86 0.0 0.0 0.01 0.36 0.03 72 1015.0
20181121052707 41 123 0.0 0.0 0.01 0.36 0.03 72 1015.0
20181121052207 41 167 0.0 0.0 0.01 0.36 0.03 72 1015.0
20181121051707 41 167 0.0 0.0 0.01 0.36 0.03 72 1015.0
20181121050709 41 167 0.0 0.0 0.00 0.36 0.02 72 1016.0
20181121050207 41 167 0.0 0.0 0.00 0.36 0.02 72 1016.0
20181121045706 41 145 0.0 0.0 0.01 0.36 0.02 72 1015.0
20181121045207 41 167 0.0 0.0 0.01 0.36 0.02 72 1015.0
20181121044708 41 190 0.0 1.0 0.01 0.36 0.02 72 1015.0
20181121044207 41 123 1.0 1.0 0.01 0.36 0.02 72 1015.0
20181121043707 41 148 0.0 0.0 0.01 0.36 0.02 72 1015.0
20181121043207 41 164 0.0 0.0 0.01 0.36 0.02 72 1015.0
20181121042707 41 155 0.0 1.0 0.01 0.36 0.02 72 1015.0
20181121042210 41 167 0.0 1.0 0.01 0.36 0.02 72 1015.0
20181121041707 41 160 0.0 0.0 0.01 0.36 0.02 72 1015.0
20181121041207 41 167 0.0 2.0 0.01 0.36 0.02 72 1014.0
20181121040707 41 163 0.0 2.0 0.01 0.36 0.02 72 1014.0
20181121040207 41 140 0.0 0.0 0.01 0.36 0.02 72 1014.0
20181121035707 41 123 0.0 2.0 0.01 0.35 0.02 72 1015.0
20181121035207 41 123 1.0 2.0 0.01 0.35 0.02 71 1015.0
20181121034718 41 119 0.0 0.0 0.01 0.35 0.02 71 1015.0
20181121034206 41 162 0.0 1.0 0.01 0.35 0.02 71 1015.0
20181121033707 41 167 0.0 1.0 0.01 0.35 0.02 71 1015.0
20181121033207 41 142 0.0 2.0 0.01 0.35 0.02 71 1015.0
20181121032707 41 167 0.0 5.0 0.01 0.35 0.02 71 1015.0
20181121032206 41 150 0.0 5.0 0.01 0.35 0.02 71 1015.0
20181121031707 41 130 0.0 5.0 0.01 0.35 0.02 71 1015.0
20181121031207 41 99 0.0 2.0 0.01 0.35 0.02 71 1015.0
20181121030707 41 150 0.0 0.0 0.01 0.35 0.01 71 1015.0
20181121030207 41 156 0.0 0.0 0.01 0.35 0.01 71 1015.0
20181121025707 41 167 0.0 0.0 0.01 0.35 0.01 71 1014.0
20181121025207 41 100 0.0 0.0 0.01 0.35 0.01 71 1014.0
20181121024707 41 102 0.0 0.0 0.01 0.35 0.01 71 1014.0
20181121024207 41 148 0.0 0.0 0.01 0.35 0.01 71 1014.0
20181121023707 41 145 0.0 0.0 0.01 0.34 0.01 71 1014.0
20181121023207 41 149 0.0 2.0 0.01 0.34 0.01 71 1014.0
20181121022707 41 109 1.0 2.0 0.01 0.34 0.01 71 1014.0
20181121022207 41 140 0.0 0.0 0.01 0.34 0.01 71 1014.0
20181121021707 41 138 0.0 0.0 0.01 0.34 0.01 71 1014.0
20181121021207 41 144 0.0 5.0 0.01 0.34 0.01 71 1014.0
20181121020707 41 157 0.0 5.0 0.01 0.34 0.01 71 1014.0
20181121020207 41 98 1.0 3.0 0.00 0.34 0.00 71 1014.0
20181121015208 41 149 0.0 2.0 0.00 0.34 0.00 72 1013.0
20181121014708 41 132 0.0 0.0 0.00 0.34 0.00 72 1013.0
20181121014207 41 135 0.0 0.0 0.00 0.34 0.00 72 1013.0
20181121013707 41 145 0.0 0.0 0.00 0.34 0.00 72 1013.0
20181121013207 41 103 0.0 2.0 0.00 0.34 0.00 72 1013.0
20181121012706 41 100 0.0 2.0 0.00 0.34 0.00 72 1013.0
20181121012206 41 105 0.0 2.0 0.00 0.34 0.00 72 1013.0
20181121011707 41 120 0.0 2.0 0.00 0.34 0.00 72 1013.0
20181121011207 41 128 0.0 0.0 0.00 0.34 0.00 72 1013.0
20181121010707 41 123 0.0 0.0 0.00 0.34 0.00 72 1013.0
20181121010207 41 77 0.0 0.0 0.00 0.34 0.00 72 1013.0
20181121005707 41 94 0.0 0.0 0.00 0.34 0.00 72 1013.0
20181121004707 41 77 0.0 5.0 0.00 0.34 0.00 72 1013.0
20181121004207 41 77 2.0 5.0 0.00 0.34 0.00 71 1013.0
20181121003707 41 104 1.0 6.0 0.00 0.34 0.00 71 1013.0
20181121002708 41 87 3.0 7.0 0.00 0.34 0.00 72 1013.0
20181121002207 41 90 0.0 6.0 0.00 0.34 0.00 72 1013.0
20181121001708 41 119 1.0 6.0 0.00 0.34 0.00 72 1013.0
20181121001207 41 92 0.0 5.0 0.00 0.34 0.00 72 1013.0
20181121000707 41 119 1.0 5.0 0.00 0.34 0.00 72 1013.0
20181121000207 41 102 1.0 2.0 0.00 0.34 0.00 71 1013.0
20181120235707 41 92 0.0 6.0 0.00 0.34 0.00 71 1013.0
20181120235207 41 119 1.0 6.0 0.00 0.34 0.00 71 1013.0
20181120234706 41 77 0.0 6.0 0.00 0.34 0.00 71 1013.0
20181120234207 41 129 2.0 5.0 0.00 0.34 0.00 71 1013.0
20181120233707 41 120 2.0 5.0 0.00 0.34 0.00 71 1013.0
20181120233207 41 114 0.0 5.0 0.00 0.34 0.00 71 1013.0
20181120232707 41 90 1.0 6.0 0.00 0.34 0.00 71 1014.0
20181120232207 41 108 1.0 6.0 0.00 0.34 0.00 71 1014.0
20181120231709 41 89 1.0 8.0 0.00 0.34 0.00 71 1014.0
20181120231206 41 110 1.0 8.0 0.00 0.34 0.00 71 1013.0
20181120230707 41 88 3.0 8.0 0.00 0.34 0.00 71 1013.0
20181120230207 41 115 2.0 9.0 0.00 0.34 0.00 71 1013.0
20181120225714 41 121 5.0 9.0 0.00 0.34 0.34 71 1013.0
20181120224707 41 135 1.0 8.0 0.00 0.34 0.34 71 1013.0
20181120224207 41 112 2.0 8.0 0.00 0.34 0.34 71 1013.0
20181120223707 41 132 2.0 7.0 0.00 0.34 0.34 71 1013.0
20181120223207 40 104 1.0 5.0 0.00 0.34 0.34 71 1013.0
20181120222707 40 105 0.0 2.0 0.00 0.34 0.34 71 1013.0
20181120222206 40 77 0.0 0.0 0.00 0.34 0.34 71 1013.0
20181120221707 40 98 0.0 5.0 0.00 0.34 0.34 71 1013.0
20181120221207 40 123 2.0 7.0 0.00 0.34 0.34 71 1013.0
20181120220707 40 102 2.0 8.0 0.00 0.34 0.34 71 1013.0
20181120220207 40 95 3.0 8.0 0.00 0.34 0.34 71 1013.0
20181120215707 40 110 3.0 9.0 0.00 0.34 0.34 70 1013.0
20181120215215 40 95 3.0 9.0 0.00 0.34 0.34 70 1013.0
20181120214708 40 96 3.0 8.0 0.00 0.34 0.34 70 1013.0
20181120214207 40 98 3.0 8.0 0.00 0.34 0.34 70 1013.0
20181120213707 40 110 1.0 8.0 0.00 0.34 0.34 70 1013.0
20181120213207 40 99 3.0 9.0 0.00 0.34 0.34 70 1013.0
20181120212707 40 106 4.0 9.0 0.00 0.34 0.34 70 1012.0
20181120212208 40 142 3.0 8.0 0.00 0.34 0.34 70 1012.0
20181120211707 40 91 4.0 7.0 0.00 0.34 0.34 70 1012.0
20181120211207 40 94 3.0 8.0 0.00 0.34 0.34 70 1013.0
20181120210707 40 96 2.0 8.0 0.00 0.34 0.34 70 1013.0
20181120210207 40 129 2.0 7.0 0.00 0.34 0.34 70 1013.0
20181120205707 40 116 3.0 8.0 0.00 0.34 0.34 70 1013.0
20181120205208 40 119 3.0 8.0 0.00 0.34 0.34 70 1013.0
20181120204714 40 114 4.0 8.0 0.00 0.34 0.34 70 1013.0
20181120204207 40 118 3.0 7.0 0.01 0.34 0.34 70 1013.0
20181120203707 40 89 2.0 8.0 0.01 0.34 0.34 70 1013.0
20181120203207 40 102 5.0 8.0 0.01 0.34 0.34 70 1013.0
20181120202707 40 86 4.0 9.0 0.01 0.34 0.34 70 1013.0
20181120202206 40 134 5.0 9.0 0.01 0.34 0.34 70 1013.0
20181120201707 40 108 5.0 9.0 0.01 0.34 0.34 69 1013.0
20181120201207 40 102 5.0 9.0 0.01 0.34 0.34 69 1013.0
20181120200707 40 103 3.0 13.0 0.01 0.34 0.34 69 1013.0
20181120200206 40 122 6.0 13.0 0.01 0.34 0.34 69 1013.0
20181120195707 40 164 4.0 12.0 0.01 0.34 0.34 69 1013.0
20181120195207 40 132 4.0 8.0 0.01 0.34 0.34 69 1013.0
20181120194706 40 112 3.0 8.0 0.01 0.34 0.34 69 1013.0
20181120194208 40 96 3.0 7.0 0.00 0.33 0.33 69 1013.0
20181120193707 40 124 2.0 9.0 0.00 0.33 0.33 69 1013.0
20181120193207 40 117 5.0 9.0 0.00 0.33 0.33 69 1013.0
20181120192707 40 94 3.0 8.0 0.00 0.33 0.33 69 1013.0
20181120192209 40 103 3.0 8.0 0.00 0.33 0.33 69 1013.0
20181120191707 40 143 2.0 8.0 0.00 0.33 0.33 69 1013.0
20181120191207 40 112 2.0 9.0 0.00 0.33 0.33 69 1013.0
20181120190707 40 125 3.0 9.0 0.00 0.33 0.33 69 1013.0
20181120190207 40 102 2.0 10.0 0.00 0.33 0.33 69 1013.0
20181120185707 40 91 2.0 10.0 0.00 0.33 0.33 69 1013.0
20181120185207 40 126 5.0 9.0 0.00 0.33 0.33 69 1013.0
20181120184708 40 116 5.0 13.0 0.00 0.33 0.33 69 1013.0
20181120184207 40 148 3.0 13.0 0.00 0.33 0.33 69 1012.0
20181120183707 40 108 5.0 10.0 0.01 0.33 0.33 68 1012.0
20181120183207 40 107 5.0 10.0 0.01 0.33 0.33 68 1012.0
20181120182707 40 87 2.0 10.0 0.01 0.33 0.33 68 1013.0
20181120182207 40 120 5.0 10.0 0.01 0.33 0.33 68 1013.0
20181120181707 40 89 3.0 10.0 0.01 0.33 0.33 68 1013.0
20181120181208 39 87 6.0 10.0 0.01 0.33 0.33 68 1013.0
20181120180709 39 116 6.0 13.0 0.01 0.33 0.33 68 1013.0
20181120180207 39 98 5.0 13.0 0.01 0.33 0.33 68 1013.0